DMSP 5D-2 F13 DEB, 40395

Orbit data source: Space-Track

DMSP 5D-2 F13 DEB, 40395 is space debris in SSO originally from a launch on Fri, 24 Mar 1995 UTC launched from the Air Force Western Test Range (AFWTR). Debris objects in space refer to the collection of defunct objects orbiting the Earth. Examples of debris include non-operational satellites, rocket bodies, and fragments generated from explosions, collisions, or faulty payload assembly.

Loading next visibility...
Identifier
40395, 1995-015G
Orbit
SSO
Country
Flag of USUS
Related business
Manufacturer
Unknown
Mission
Spacecraft
Bus & Motor
Unknown
Mass
Unknown
Launch date (UTC)
1995-03-24 (31 years ago)
Launch vehicle
Unknown
Launch site
Air Force Western Test Range (AFWTR)
Object type
Payload
Rocket body
Debris
Shape & HBR
Unknown shape, 0.1 m
Radar Cross Section
Medium (>0.1 m² and <1 m²)

Expand to show TLE details & history
Last TLE update: 2 days ago

TLE from 2 days ago
0 DMSP 5D-2 F13 DEB
1 40395U 95015G   26171.30667027  .00001383  00000-0  55151-3 0  9994
2 40395  98.5971 194.2595 0021028 262.8651  97.0140 14.30024921588121
Epoch: 2026-06-20T07:21Z
TLE epoch observation values (Epoch: 2026-06-20T07:21:36.311Z)
Latitude
-0.00005°
Longitude
175.33503°
Altitude
796.452 km
Speed
7.454 km/s
True Right ascension
12h 57m 02s
True Declination
0° 00' 00"
Sunlit
Object was in daylight at epoch
Visualization orbit readout
Latitude
Unknown
Longitude
Unknown
Altitude
Unknown
Speed
Unknown
Apparent Right ascension
Unknown
Apparent Declination
Unknown
Sunlit
N/A
Visualization observer readout
Local Sidereal Time
12:12:24
Azimuth
Unknown
Elevation
Unknown
Doppler factor
Unknown
Orbital elements
Apogee altitude
803.858 km
Perigee altitude
773.717 km
Semi-major axis
7,166.924 km
Eccentricity
0.0021
Inclination
98.5971°
RAAN
194.2595°
Arg. of periapsis
262.8651°
True anomaly
97.25308°
Mean anomaly
97.014°
Eccentric anomaly
97.13355°
Mean motion
3.57721 °/min
Orbital period
100.64 mins
BSTAR
0.00055151
Loading maneuver chart data...
Computing Atmospheric mass density...

Documentation

Showing up to 5 results
|